sat.trackr.live / text

‹ back to catalog

STARLINK-6132

NORAD 57101 · 2023-090A

PAYLOAD ACTIVE UNKNOWN

§ Identity

Operator
Country
US
Launch date
2023-06-23
Launch site
AFETR
Launch vehicle
Mass (kg)
RCS (m²)

Purposes: comms

External: N2YO · Heavens-Above · Gunter

§ Orbital elements

Epoch: 2026-09-20T16:26:29.093280Z

Period
94.27 min
Inclination
43.0019°
Eccentricity
0.0001673
Mean motion
15.27578144 rev/d
Perigee alt
481.9 km
Apogee alt
484.2 km
Semi-major
6,861.2 km
B*
1.2656e-5
RAAN
260.3962°
Arg perigee
265.3647°
Mean anomaly
94.7014°
Rev number
18,015

§ Raw data

STARLINK-61321 57101U 23090A   26263.68505895  .00000086  00000+0  12656-4 0  99902 57101  43.0019 260.3962 0001673 265.3647  94.7014 15.27578144180155

JSON: /api/v1/satellites/57101 · /tle

For live sub-satellite position, see the globe view (requires WebGL).

§ Visibility from observer

Set your observer location to see the next 7 days of passes ≥ 10°. The values pass through the URL so the page stays shareable.

No JS? Fill the form by hand. The geolocation button needs JavaScript.